This demonstration page uses our WeatherBlox Daily Observations layout. Learn more.

40.92945, -100.16068

Hourly Observations for August 30, 2018

Temp ( °F °C ) Dew Point ( °F °C ) Humidity (%) Winds ( mph kmh ) Pressure ( in mb ) Visibility ( mi km ) Precip ( " mm )
12:15 am 00:15 Clear 62 16.7 55 12.6 77 77 SE 7 11 30.06 1018 10 16.0934 0 0
12:35 am 00:35 Clear 61 16.3 55 12.5 78 78 SSE 8 13 30.06 1018 10 16.0934 0 0
12:55 am 00:55 Clear 62 16.4 55 12.6 78 78 SSE 8 13 30.06 1018 10 16.0934 0 0
1:15 am 01:15 Clear 62 16.7 55 12.5 76 76 SSE 9 15 30.06 1018 10 16.0934 0 0
1:35 am 01:35 Clear 62 16.7 55 12.5 76 76 SE 8 13 30.03 1017 10 16.0934 0 0
1:55 am 01:55 Clear 61 16.2 55 12.5 79 79 SSE 9 15 30.03 1017 10 16.0934 0 0
2:15 am 02:15 Clear 62 16.5 55 12.6 78 78 SSE 10 17 30.03 1017 10 16.0934 0 0
2:35 am 02:35 Clear 62 16.5 55 12.7 78 78 SE 8 13 30.03 1017 10 16.0934 0 0
2:55 am 02:55 Clear 60 15.7 55 12.7 82 82 SE 6 9 30.03 1017 10 16.0934 0 0
3:15 am 03:15 Clear 60 15.7 55 12.8 83 83 SE 7 11 30.03 1017 10 16.0934 0 0
3:35 am 03:35 Clear 60 15.4 55 12.8 85 85 SE 7 11 30.03 1017 10 16.0934 0 0
3:55 am 03:55 Clear 60 15.7 56 13.1 85 85 SE 8 13 30 1016 10 16.0934 0 0
4:15 am 04:15 Clear 60 15.3 56 13.1 87 87 SE 6 9 30 1016 10 16.0934 0 0
4:35 am 04:35 Clear 59 15.1 56 13.2 89 89 SE 7 11 30 1016 10 16.0934 0 0
4:55 am 04:55 Mostly Cloudy 59 15 56 13.5 91 91 SE 6 9 30 1016 10 16.0934 0 0
5:15 am 05:15 Cloudy 60 15.6 57 14 90 90 SE 6 9 30 1016 10 16.0934 0 0
5:35 am 05:35 Cloudy 61 16.2 58 14.6 90 90 SE 6 9 30 1016 10 16.0934 0 0
5:55 am 05:55 Cloudy 62 16.6 59 15.2 92 92 SSE 6 9 30 1016 10 16.0934 0 0
6:15 am 06:15 Cloudy 64 17.5 62 16.5 94 94 SSE 8 13 29.97 1015 7 11.26538 0 0
6:35 am 06:35 Cloudy with Mist and Fog 64 17.6 62 16.7 95 95 SSE 10 17 29.97 1015 3 4.82802 0 0
6:55 am 06:55 Cloudy with Mist and Fog 64 17.7 62 16.9 95 95 S 8 13 29.97 1015 3 4.82802 0 0
7:15 am 07:15 Cloudy with Mist and Fog 64 17.7 63 17 96 96 S 7 11 29.97 1015 1 1.60934 0 0
7:35 am 07:35 Cloudy with Fog 64 18 63 17.1 95 95 SSE 6 9 29.97 1015 0.25 0.402335 0 0
7:55 am 07:55 Cloudy with Fog 65 18.1 64 17.5 96 96 SSE 8 13 29.97 1015 0.25 0.402335 0 0
8:15 am 08:15 Cloudy with Fog 65 18.2 64 17.5 96 96 SSE 8 13 29.97 1015 0.25 0.402335 0 0
8:35 am 08:35 Cloudy with Fog 65 18.3 64 17.6 96 96 SSE 9 15 29.97 1015 0.5 0.80467 0 0
8:55 am 08:55 Cloudy with Fog 65 18.4 64 17.7 96 96 SSE 12 19 29.97 1015 0.25 0.402335 0 0
9:15 am 09:15 Cloudy with Fog 65 18.5 64 17.9 96 96 S 10 17 29.97 1015 0.5 0.80467 0 0
9:35 am 09:35 Cloudy with Fog 66 18.8 65 18.1 96 96 SSE 12 19 29.97 1015 0.5 0.80467 0 0
9:55 am 09:55 Cloudy with Mist and Fog 66 19 65 18.3 96 96 S 13 20 29.97 1015 0.75 1.207005 0 0
10:15 am 10:15 Cloudy with Mist and Fog 66 19.1 65 18.5 96 96 S 13 20 29.97 1015 0.75 1.207005 0 0
10:35 am 10:35 Cloudy with Mist and Fog 67 19.5 66 18.8 96 96 SSE 12 19 29.97 1015 1.25 2.011675 0 0
10:55 am 10:55 Cloudy with Mist and Fog 67 19.7 66 19 96 96 SSE 9 15 29.97 1015 2.5 4.02335 0 0
11:15 am 11:15 Cloudy with Mist and Fog 68 19.9 66 18.9 94 94 S 12 19 29.97 1015 4 6.43736 0 0
11:35 am 11:35 Cloudy with Mist and Fog 68 20.1 66 18.8 92 92 SSE 12 19 29.97 1015 5 8.0467 0 0
11:55 am 11:55 Cloudy with Mist and Fog 69 20.5 66 19.1 92 92 S 9 15 29.91 1013 5 8.0467 0 0
12:15 pm 12:15 Cloudy 70 21 66 19.1 89 89 S 8 13 29.91 1013 7 11.26538 0 0
12:35 pm 12:35 Cloudy 71 21.4 66 19.1 87 87 S 9 15 29.91 1013 10 16.0934 0 0
12:55 pm 12:55 Cloudy 73 22.5 66 19 81 81 S 14 22 29.91 1013 10 16.0934 0 0
1:15 pm 13:15 Cloudy 73 22.6 66 19.1 81 81 S 12 19 29.91 1013 10 16.0934 0 0
1:35 pm 13:35 Cloudy 75 24 67 19.2 75 75 S 9 15 29.88 1012 10 16.0934 0 0
1:55 pm 13:55 Mostly Cloudy 75 23.9 66 18.9 74 74 SE 8 13 29.85 1011 10 16.0934 0 0
2:15 pm 14:15 Partly Cloudy 76 24.7 66 19.1 71 71 SE 12 19 29.85 1011 10 16.0934 0 0
2:35 pm 14:35 Sunny 79 25.9 67 19.3 67 67 SSE 14 22 29.83 1010 10 16.0934 0 0
2:55 pm 14:55 Sunny 80 26.4 66 19.1 64 64 SSE 12 19 29.8 1009 10 16.0934 0 0
3:15 pm 15:15 Partly Cloudy 80 26.9 67 19.3 63 63 SSE 12 19 29.8 1009 10 16.0934 0 0
3:35 pm 15:35 Mostly Cloudy 80 26.7 67 19.4 64 64 S 9 15 29.8 1009 10 16.0934 0 0
3:55 pm 15:55 Mostly Cloudy 82 28 68 19.8 61 61 SE 9 15 29.8 1009 10 16.0934 0 0
4:15 pm 16:15 Mostly Cloudy 81 27.4 67 19.6 62 62 SSE 10 17 29.77 1008 10 16.0934 0 0
4:35 pm 16:35 Partly Cloudy 81 27.4 68 19.9 64 64 SSE 10 17 29.77 1008 10 16.0934 0 0
4:55 pm 16:55 Partly Cloudy 82 27.5 68 20 64 64 SSE 9 15 29.77 1008 10 16.0934 0 0
5:15 pm 17:15 Sunny 83 28.6 69 20.4 61 61 SSE 15 24 29.77 1008 10 16.0934 0 0
5:35 pm 17:35 Sunny 82 28 69 20.5 64 64 SSE 15 24 29.77 1008 10 16.0934 0 0
5:55 pm 17:55 Sunny 83 28.6 69 20.7 62 62 SE 14 22 29.77 1008 10 16.0934 0 0
6:15 pm 18:15 Partly Cloudy 83 28.1 70 20.9 65 65 SE 13 20 29.77 1008 10 16.0934 0 0
6:35 pm 18:35 Partly Cloudy 82 27.7 70 21.2 68 68 SE 12 19 29.77 1008 10 16.0934 0 0
6:55 pm 18:55 Sunny 81 27.4 70 21.3 69 69 SE 8 13 29.77 1008 10 16.0934 0 0
7:15 pm 19:15 Sunny 79 26.2 70 21.3 74 74 SE 8 13 29.77 1008 10 16.0934 0 0
7:35 pm 19:35 Sunny 79 25.9 70 21.2 75 75 ESE 8 13 29.8 1009 10 16.0934 0 0
7:55 pm 19:55 Sunny 77 25.2 70 21.2 79 79 ESE 7 11 29.8 1009 10 16.0934 0 0
8:15 pm 20:15 Clear 76 24.5 70 21.3 82 82 ESE 7 11 29.8 1009 10 16.0934 0 0
8:35 pm 20:35 Clear 76 24.3 70 21.2 83 83 ESE 6 9 29.8 1009 10 16.0934 0 0
8:55 pm 20:55 Clear 76 24.7 70 21 80 80 SE 8 13 29.8 1009 10 16.0934 0 0
9:15 pm 21:15 Clear 76 24.4 69 20.7 80 80 SE 9 15 29.8 1009 10 16.0934 0 0
9:35 pm 21:35 Clear 75 23.8 69 20.7 83 83 SE 9 15 29.8 1009 10 16.0934 0 0
9:55 pm 21:55 Clear 75 23.7 69 20.8 84 84 SE 10 17 29.8 1009 10 16.0934 0 0
10:15 pm 22:15 Clear 74 23.5 69 20.7 84 84 SE 10 17 29.8 1009 10 16.0934 0 0
10:35 pm 22:35 Clear 74 23.1 69 20.6 86 86 SE 12 19 29.8 1009 10 16.0934 0 0
10:55 pm 22:55 Clear 73 22.7 69 20.5 87 87 SE 10 17 29.8 1009 10 16.0934 0 0
11:15 pm 23:15 Clear 72 22.4 69 20.3 88 88 SE 9 15 29.83 1010 10 16.0934 0 0
11:35 pm 23:35 Clear 72 22.1 69 20.3 90 90 SE 9 15 29.83 1010 10 16.0934 0 0
11:55 pm 23:55 Clear 72 22 69 20.5 91 91 SE 8 13 29.83 1010 10 16.0934 0 0

Powered by AerisWeather